Date String (YYYY-MM-DD hh:mm:ss) UTC,Instrument flags,absolute air pressure of the measurement (hPa),sample flow rate (lpm),inlet stack bypass flow (lpm),air temperature of the measurement (°C),ambient temperature measured by the external sensor (°C),aerosol sample conditioner tube jacket temperature (°C),OPC LED temperature (°C),internal box temperature (°C),relative humidity of the measurement (%),span deviation,mass concentration of particles derived from Lorenz-Mie calculation of OPC scattering (μg/m³),mass concentration of particles derived from Lorenz-Mie calculation of OPC scattering (μg/m³),mass concentration of particles derived from Lorenz-Mie calculation of OPC scattering (μg/m³)
DateTimeUTC,F1_M11,P_M11,Q1_M11,Q2_M11,T1_M11,T2_M11,T3_M11,T4_M11,T5_M11,U1_M11,ZSPAN_M11,X0_M11,X2_M11,X1_M11
2023-08-25 18:00:00,SystemResetWarning,0839.2,4.99,000.00,031.4,026.9,000.0,039.2,031.0,34.5,0000.0,0007.81,0004.43,0003.77
2023-08-25 18:01:00,SystemResetWarning,0839.3,5.02,000.00,031.4,027.1,000.0,039.2,031.0,34.5,0000.0,0007.81,0004.43,0003.76
2023-08-25 18:02:00,SystemResetWarning,0839.2,5.00,000.00,031.4,027.2,000.0,039.3,031.0,34.6,0000.0,0007.88,0004.42,0003.75
2023-08-25 18:03:00,SystemResetWarning,0839.2,5.00,000.00,031.4,027.3,000.0,039.3,031.0,34.7,0000.0,0007.87,0004.42,0003.75
2023-08-25 18:04:00,SystemResetWarning,0839.2,5.00,000.00,031.4,027.4,000.0,039.3,031.0,34.6,0000.0,0007.92,0004.44,0003.74
2023-08-25 18:05:00,SystemResetWarning,0839.3,5.00,000.00,031.4,027.5,000.0,039.4,031.0,34.8,0000.0,0007.94,0004.44,0003.73
2023-08-25 18:06:00,SystemResetWarning,0839.2,4.99,000.00,031.4,027.5,000.0,039.4,031.1,35.1,0000.0,0008.06,0004.47,0003.74
2023-08-25 18:07:00,SystemResetWarning,0839.2,5.02,000.00,031.5,026.2,000.0,039.2,031.0,34.6,0000.0,0008.03,0004.44,0003.72
2023-08-25 18:08:00,SystemResetWarning,0839.3,4.98,000.00,031.6,024.5,000.0,039.1,030.7,34.4,0000.0,0008.05,0004.42,0003.70
2023-08-25 18:09:00,SystemResetWarning,0839.2,5.03,000.00,031.5,023.9,000.0,039.0,030.4,34.5,0000.0,0008.10,0004.39,0003.70
2023-08-25 18:10:00,SystemResetWarning,0839.2,4.97,000.00,031.3,024.1,000.0,039.0,030.2,35.0,0000.0,0008.19,0004.36,0003.69
2023-08-25 18:11:00,SystemResetWarning,0839.2,5.04,000.00,031.2,024.5,000.0,039.0,030.2,35.5,0000.0,0008.16,0004.35,0003.70
2023-08-25 18:12:00,SystemResetWarning,0839.2,4.98,000.00,031.3,025.0,000.0,039.1,030.4,35.5,0000.0,0008.19,0004.36,0003.71
2023-08-25 18:13:00,SystemResetWarning,0839.2,5.01,000.00,031.6,025.4,000.0,039.1,030.7,34.9,0000.0,0008.10,0004.37,0003.72
2023-08-25 18:14:00,SystemResetWarning,0839.2,5.00,000.00,031.8,025.8,000.0,039.1,030.8,34.3,0000.0,0008.00,0004.35,0003.72
2023-08-25 18:15:00,SystemResetWarning,0839.2,5.00,000.00,031.9,026.1,000.0,039.2,030.8,34.2,0000.0,0007.98,0004.36,0003.73
2023-08-25 18:16:00,SystemResetWarning,0839.2,5.00,000.00,031.9,026.4,000.0,039.2,030.8,34.3,0000.0,0008.23,0004.35,0003.73
2023-08-25 18:17:00,SystemResetWarning,0839.2,4.99,000.00,031.9,026.6,000.0,039.3,030.9,34.3,0000.0,0008.51,0004.32,0003.73
2023-08-25 18:18:00,SystemResetWarning,0839.2,4.99,000.00,031.9,026.8,000.0,039.4,030.9,34.5,0000.0,0008.56,0004.36,0003.75
2023-08-25 18:19:00,SystemResetWarning,0839.3,4.99,000.00,031.9,027.0,000.0,039.5,030.9,34.5,0000.0,0008.47,0004.35,0003.75
2023-08-25 18:20:00,SystemResetWarning,0839.3,5.00,000.00,031.8,027.1,000.0,039.5,030.9,34.6,0000.0,0008.21,0004.31,0003.75
2023-08-25 18:21:00,SystemResetWarning,0839.3,5.01,000.00,031.8,027.2,000.0,039.6,031.0,34.7,0000.0,0007.98,0004.29,0003.74
2023-08-25 18:22:00,SystemResetWarning,0839.3,4.99,000.00,031.8,027.3,000.0,039.6,031.0,35.0,0000.0,0008.00,0004.28,0003.73
2023-08-25 18:23:00,SystemResetWarning,0839.3,5.04,000.00,031.8,027.4,000.0,039.6,031.1,35.0,0000.0,0007.96,0004.24,0003.71
2023-08-25 18:24:00,SystemResetWarning,0839.3,4.96,000.00,031.9,027.5,000.0,039.7,031.2,34.5,0000.0,0008.16,0004.23,0003.70
2023-08-25 18:25:00,SystemResetWarning,0839.4,5.02,000.00,032.0,027.6,000.0,039.7,031.2,34.3,0000.5,0008.25,0004.22,0003.70
2023-08-25 18:26:00,SystemResetWarning,0839.4,5.00,000.00,032.0,027.4,000.0,039.7,031.2,34.4,0000.2,0008.15,0004.18,0003.68
2023-08-25 18:27:00,SystemResetWarning,0839.4,4.99,000.00,032.1,025.8,000.0,039.5,031.1,34.3,0000.4,0007.89,0004.17,0003.67
2023-08-25 18:28:00,SystemResetWarning,0839.3,5.01,000.00,032.0,024.9,000.0,039.4,030.9,34.4,0000.5,0007.54,0004.20,0003.66
2023-08-25 18:29:00,SystemResetWarning,0839.4,5.01,000.00,031.9,024.8,000.0,039.4,030.6,34.6,0000.7,0007.45,0004.16,0003.65
2023-08-25 18:30:00,SystemResetWarning,0839.3,4.97,000.00,031.6,025.1,000.0,039.5,030.5,35.2,0001.5,0007.49,0004.18,0003.65
2023-08-25 18:31:00,SystemResetWarning,0839.3,5.02,000.00,031.6,025.5,000.0,039.5,030.6,35.5,0000.8,0007.58,0004.22,0003.64
2023-08-25 18:32:00,SystemResetWarning,0839.3,5.00,000.00,031.8,025.8,000.0,039.5,030.8,35.2,0001.5,0007.69,0004.25,0003.64
2023-08-25 18:33:00,SystemResetWarning,0839.4,4.98,000.00,032.0,026.2,000.0,039.5,031.0,34.6,0000.2,0007.61,0004.24,0003.63
2023-08-25 18:34:00,SystemResetWarning,0839.3,5.01,000.00,032.1,026.4,000.0,039.6,031.0,34.5,0000.0,0007.62,0004.25,0003.62
2023-08-25 18:35:00,SystemResetWarning,0839.4,5.01,000.00,032.2,026.7,000.0,039.6,031.0,34.7,0000.0,0007.46,0004.23,0003.62
2023-08-25 18:36:00,SystemResetWarning,0839.4,4.99,000.00,032.2,026.9,000.0,039.7,031.1,34.4,0000.0,0007.21,0004.22,0003.62
2023-08-25 18:37:00,SystemResetWarning,0839.4,5.00,000.00,032.1,027.1,000.0,039.7,031.1,34.5,0000.0,0007.19,0004.22,0003.62
2023-08-25 18:38:00,SystemResetWarning,0839.4,5.00,000.00,032.1,027.2,000.0,039.8,031.1,34.7,0000.0,0007.19,0004.20,0003.62
2023-08-25 18:39:00,SystemResetWarning,0839.4,4.99,000.00,032.1,027.3,000.0,039.8,031.1,34.9,0000.0,0007.10,0004.15,0003.61
2023-08-25 18:40:00,SystemResetWarning,0839.4,5.00,000.00,032.0,027.5,000.0,039.9,031.2,34.8,0000.0,0006.87,0004.10,0003.60
2023-08-25 18:41:00,SystemResetWarning,0839.5,5.00,000.00,032.0,027.5,000.0,039.9,031.2,34.8,0000.0,0006.73,0004.07,0003.59
2023-08-25 18:42:00,SystemResetWarning,0839.4,4.99,000.00,032.0,027.4,000.0,039.9,031.2,35.1,0000.0,0006.63,0004.05,0003.58
2023-08-25 18:43:00,SystemResetWarning,0839.4,5.02,000.00,032.1,025.7,000.0,039.7,031.1,35.1,0000.0,0006.32,0004.00,0003.58
2023-08-25 18:44:00,SystemResetWarning,0839.3,4.99,000.00,032.3,024.3,000.0,039.5,031.0,34.7,0000.0,0006.37,0004.00,0003.57
2023-08-25 18:45:00,SystemResetWarning,0839.4,4.99,000.00,032.3,024.0,000.0,039.5,030.7,34.4,0000.0,0006.28,0003.98,0003.57
2023-08-25 18:46:00,SystemResetWarning,0839.4,5.01,000.00,032.0,024.2,000.0,039.5,030.4,34.8,0000.0,0006.28,0003.96,0003.55
2023-08-25 18:47:00,SystemResetWarning,0839.3,4.99,000.00,031.9,024.7,000.0,039.6,030.5,35.1,0000.0,0006.24,0003.96,0003.53
2023-08-25 18:48:00,SystemResetWarning,0839.3,5.03,000.00,032.0,025.2,000.0,039.6,030.7,34.8,0000.0,0006.25,0003.95,0003.53
2023-08-25 18:49:00,SystemResetWarning,0839.4,4.97,000.00,032.1,025.6,000.0,039.6,030.8,34.7,0000.0,0006.28,0003.96,0003.53
2023-08-25 18:50:00,SystemResetWarning,0839.5,5.01,000.00,032.1,026.0,000.0,039.7,030.8,34.6,0000.0,0006.21,0003.97,0003.52
2023-08-25 18:51:00,SystemResetWarning,0839.5,5.01,000.00,032.1,026.3,000.0,039.7,030.9,34.7,0000.0,0006.53,0004.01,0003.51
2023-08-25 18:52:00,SystemResetWarning,0839.5,5.00,000.00,032.0,026.5,000.0,039.7,030.9,34.8,0000.0,0006.53,0004.00,0003.50
2023-08-25 18:53:00,SystemResetWarning,0839.5,4.98,000.00,032.0,026.8,000.0,039.8,030.9,35.0,0000.0,0006.37,0003.95,0003.49
2023-08-25 18:54:00,SystemResetWarning,0839.4,5.03,000.00,032.0,027.0,000.0,039.8,031.0,35.2,0000.0,0007.18,0003.97,0003.49
2023-08-25 18:55:00,SystemResetWarning,0839.5,4.98,000.00,032.2,027.1,000.0,039.8,031.1,34.8,0000.0,0007.15,0003.95,0003.48
2023-08-25 18:56:00,SystemResetWarning,0839.5,5.01,000.00,032.3,027.2,000.0,039.8,031.2,34.5,0000.0,0007.13,0003.95,0003.47
2023-08-25 18:57:00,SystemResetWarning,0839.5,5.00,000.00,032.3,027.4,000.0,039.9,031.2,34.6,0000.0,0007.12,0003.96,0003.46
2023-08-25 18:58:00,SystemResetWarning,0839.5,4.99,000.00,032.3,027.5,000.0,039.9,031.2,34.8,0000.0,0007.08,0003.96,0003.46
2023-08-25 18:59:00,SystemResetWarning,0839.5,5.01,000.00,032.3,027.5,000.0,040.0,031.3,34.7,0000.0,0007.05,0003.94,0003.45
